Home   Weather   Husum   Past weeks

Flag for Germany Past Weather in Husum, Schleswig-Holstein, Germany — Yesterday and Last 2 Weeks

Now
45 °F

Quite cool.


Feels Like: 36 °F
Forecast: 47 / 49 °F
Wind: 23 mph from Southwest

Location: Schleswig-Jagel

Current Time: Dec 8, 2016 at 3:14:39 am

Latest Report: Dec 8, 2016 at 2:20 am


Visibility: 6 mi

Pressure: 30.15 "Hg

Humidity: 87%

Dew Point: 41 °F

Location of HusumLocation

Past Weather in Husum — Graph

°F

Husum Temperature Yesterday

Maximum temperature yesterday: 45 °F (at 11:20 pm)
Minimum temperature yesterday: 36 °F (at 2:20 am)
Average temperature yesterday: 39 °F

High & Low Weather Summary for the Past Weeks

 TemperatureHumidityPressure
High48 °F (Nov 23, 12:20 pm)100% (Nov 23, 8:20 am)30.54 "Hg (Nov 23, 8:20 am)
Low21 °F (Nov 29, 1:20 am)61% (Nov 27, 1:20 pm)29.86 "Hg (Dec 1, 10:20 pm)
Average37 °F88%30.24 "Hg
* Reported Nov 23 1:20 am — Dec 8 1:20 am, Husum, Weather by CustomWeather, © 2016

Note: Actual official high and low records may vary slightly from our data, if they occured in-between our weather recording intervals... More about our weather records

Advertising

Husum Weather History for the Previous 24 Hours

Scroll right to see more
 ConditionsComfort  
Time TempWeatherWind HumidityBarometerVisibility
1:20 am
Thu, Dec 8
45 °FQuite cool.21 mph87%30.15 "HgN/A
12:20 am45 °FQuite cool.18 mph87%30.15 "HgN/A
11:20 pm
Wed, Dec 7
45 °FQuite cool.18 mph87%30.18 "Hg6 mi
10:20 pm43 °FQuite cool.16 mph93%30.18 "Hg6 mi
9:20 pm43 °FQuite cool.18 mph93%30.18 "Hg6 mi
8:20 pm43 °FQuite cool.18 mph93%30.18 "Hg6 mi
7:20 pm43 °FQuite cool.20 mph93%30.18 "HgN/A
6:20 pm43 °FQuite cool.18 mph93%30.18 "Hg6 mi
5:20 pm43 °FQuite cool.13 mph87%30.21 "HgN/A
4:55 pm43 °FPassing clouds.15 mph87%30.21 "Hg5 mi
4:20 pm43 °FPartly cloudy.14 mph87%30.21 "Hg4 mi
3:20 pm41 °FOvercast.13 mph93%30.21 "Hg4 mi
2:20 pm41 °FLow clouds.15 mph87%30.24 "Hg4 mi
1:20 pm39 °FDrizzle. Overcast.9 mph93%30.24 "Hg4 mi
12:20 pm39 °FLight rain. Partly sunny.10 mph87%30.27 "Hg4 mi
11:20 am37 °FLight rain. Broken clouds.12 mph87%30.30 "Hg5 mi
10:20 am36 °FLight rain. Partly sunny.12 mph87%30.30 "Hg5 mi
9:20 am36 °FLight rain. Broken clouds.10 mph87%30.33 "Hg5 mi
8:20 am36 °FPassing clouds.12 mph81%30.33 "HgN/A
7:20 am36 °FPartly cloudy.8 mph81%30.36 "HgN/A
6:20 am36 °FPartly cloudy.8 mph75%30.36 "HgN/A
5:20 am36 °FPassing clouds.12 mph81%30.39 "HgN/A
4:20 am36 °FChilly.8 mph81%30.39 "HgN/A
3:20 am36 °FChilly.8 mph81%30.42 "HgN/A
Weather by CustomWeather, © 2016

See weather overviewHow to use our weather pages